User: anonymous   Login
Location: Unspecified
(0.0000°N, 0.0000°E)
Time: 06:52:23
(UTC+00:00)
Language:

STARLINK-31120 - Orbit

View from above orbital plane
View from above orbital plane
View from above satellite
View from above satellite

Ground track
Ground track

The orbit is defined by the following mean orbital elements,

1 58778U          26145.35857627 +.00000000 +00000-0 +14023-3 0 00002
2 58778  53.1608  17.8999 0001440  94.9474 265.1691 15.30198186    01
Epoch (UTC): 25 May 2026 08:36:20
Eccentricity: 0.0001440
inclination: 53.1608°
perigee height: 474 km
apogee height: 476 km
right ascension of ascending node: 17.8999°
argument of perigee: 94.9474°
revolutions per day: 15.30198186
mean anomaly at epoch: 265.1691°

The dashed part of the orbit path shows where the satellite is in the earth's shadow,  

DLR